TimeEDT,TemperatureF,Dew PointF,Humidity,Sea Level PressureIn,VisibilityMPH,Wind Direction,Wind SpeedMPH,Gust SpeedMPH,PrecipitationIn,Events,Conditions,WindDirDegrees,DateUTC
12:15 AM,68.4,68.4,100,29.99,3.0,Calm,Calm,-,N/A,,Mostly Cloudy,0,2013-09-01 04:15:00
12:35 AM,68.0,68.0,100,29.98,3.0,Calm,Calm,-,N/A,,Overcast,0,2013-09-01 04:35:00
12:55 AM,68.0,68.0,100,29.99,4.0,Calm,Calm,-,N/A,,Scattered Clouds,0,2013-09-01 04:55:00
1:15 AM,67.5,67.5,100,29.98,4.0,Calm,Calm,-,N/A,,Clear,0,2013-09-01 05:15:00
1:35 AM,67.8,67.8,100,29.97,3.0,Calm,Calm,-,N/A,,Mostly Cloudy,0,2013-09-01 05:35:00
1:55 AM,67.5,67.5,100,29.97,1.2,Calm,Calm,-,N/A,,Mostly Cloudy,0,2013-09-01 05:55:00
2:15 AM,67.1,67.1,100,29.97,1.2,Calm,Calm,-,N/A,,Mostly Cloudy,0,2013-09-01 06:15:00
2:35 AM,67.5,67.5,100,29.96,2.0,Calm,Calm,-,N/A,,Overcast,0,2013-09-01 06:35:00
2:55 AM,68.0,68.0,100,29.96,1.0,Calm,Calm,-,N/A,,Overcast,0,2013-09-01 06:55:00
3:15 AM,68.0,68.0,100,29.97,3.0,Calm,Calm,-,N/A,,Overcast,0,2013-09-01 07:15:00
3:35 AM,68.0,68.0,100,29.97,2.5,Calm,Calm,-,N/A,,Overcast,0,2013-09-01 07:35:00
3:55 AM,68.0,68.0,100,29.97,3.0,Calm,Calm,-,N/A,,Overcast,0,2013-09-01 07:55:00
4:15 AM,68.0,68.0,100,29.97,3.0,Calm,Calm,-,N/A,,Overcast,0,2013-09-01 08:15:00
4:35 AM,68.2,68.2,100,29.97,3.0,Calm,Calm,-,N/A,,Overcast,0,2013-09-01 08:35:00
4:55 AM,68.4,68.4,100,29.97,4.0,Calm,Calm,-,N/A,,Overcast,0,2013-09-01 08:55:00
5:15 AM,68.5,68.5,100,29.97,3.0,Calm,Calm,-,N/A,,Overcast,0,2013-09-01 09:15:00
5:35 AM,68.5,68.5,100,29.97,3.0,Calm,Calm,-,N/A,,Overcast,0,2013-09-01 09:35:00
5:55 AM,68.9,68.9,100,29.97,3.0,Calm,Calm,-,N/A,,Overcast,0,2013-09-01 09:55:00
6:15 AM,69.1,69.1,100,29.96,2.0,Calm,Calm,-,N/A,,Overcast,0,2013-09-01 10:15:00
6:35 AM,69.1,69.1,100,29.95,0.5,SE,3.5,-,N/A,Fog,Fog,130,2013-09-01 10:35:00
6:55 AM,69.3,69.3,100,29.95,1.5,Calm,Calm,-,N/A,,Overcast,0,2013-09-01 10:55:00
7:15 AM,69.1,69.1,100,29.95,1.2,Calm,Calm,-,N/A,,Overcast,0,2013-09-01 11:15:00
7:35 AM,69.3,69.3,100,29.97,1.0,Calm,Calm,-,N/A,,Overcast,0,2013-09-01 11:35:00
7:55 AM,69.4,69.4,100,29.98,1.5,Calm,Calm,-,N/A,,Overcast,0,2013-09-01 11:55:00
8:15 AM,69.4,69.4,100,29.98,2.0,Calm,Calm,-,N/A,,Overcast,0,2013-09-01 12:15:00
8:35 AM,70.0,70.0,100,29.98,2.5,Calm,Calm,-,N/A,,Mostly Cloudy,0,2013-09-01 12:35:00
8:55 AM,70.2,70.2,100,29.98,3.0,Calm,Calm,-,N/A,,Overcast,0,2013-09-01 12:55:00
9:15 AM,70.7,70.7,100,29.98,4.0,Calm,Calm,-,N/A,,Overcast,0,2013-09-01 13:15:00
9:35 AM,71.2,71.2,100,29.97,4.0,Calm,Calm,-,N/A,,Overcast,0,2013-09-01 13:35:00
9:55 AM,71.8,71.8,100,29.98,5.0,Calm,Calm,-,N/A,,Overcast,0,2013-09-01 13:55:00
10:15 AM,72.5,72.3,99,29.98,5.0,Calm,Calm,-,N/A,,Overcast,0,2013-09-01 14:15:00
10:35 AM,72.3,72.1,99,29.98,5.0,Calm,Calm,-,N/A,Rain,Light Rain,0,2013-09-01 14:35:00
10:55 AM,69.8,69.8,100,30.01,1.8,WSW,10.4,21.9,0.14,Rain-Thunderstorm,Heavy Thunderstorms and Rain,250,2013-09-01 14:55:00
11:15 AM,68.4,68.4,100,29.99,7.0,West,4.6,-,0.08,Rain,Light Rain,280,2013-09-01 15:15:00
11:35 AM,68.9,68.9,100,30.00,2.5,SSE,4.6,-,0.12,Rain-Thunderstorm,Thunderstorms and Rain,160,2013-09-01 15:35:00
11:55 AM,68.9,68.9,100,30.00,4.0,South,4.6,-,0.17,Rain,Rain,170,2013-09-01 15:55:00
12:15 PM,68.7,68.7,100,29.99,7.0,ESE,3.5,-,0.04,Rain,Rain,120,2013-09-01 16:15:00
12:35 PM,69.3,69.3,100,29.98,10.0,East,3.5,-,0.04,,Overcast,100,2013-09-01 16:35:00
12:55 PM,69.1,69.1,100,29.98,1.2,East,3.5,-,0.15,Rain,Rain,100,2013-09-01 16:55:00
1:15 PM,70.0,70.0,100,29.96,7.0,ESE,5.8,-,0.05,Rain,Light Rain,110,2013-09-01 17:15:00
1:35 PM,71.4,71.4,100,29.95,10.0,East,6.9,-,0.05,,Overcast,90,2013-09-01 17:35:00
1:55 PM,70.7,70.7,100,29.94,10.0,East,5.8,-,0.05,,Overcast,90,2013-09-01 17:55:00
2:15 PM,69.4,69.4,100,29.96,4.0,NNW,4.6,-,0.15,Rain,Heavy Rain,340,2013-09-01 18:15:00
2:35 PM,69.8,69.8,100,29.95,10.0,Calm,Calm,-,0.21,,Overcast,0,2013-09-01 18:35:00
2:55 PM,72.1,72.0,99,29.95,10.0,Calm,Calm,-,0.21,,Overcast,0,2013-09-01 18:55:00
3:15 PM,73.4,72.0,95,29.95,10.0,South,3.5,-,N/A,,Overcast,180,2013-09-01 19:15:00
3:35 PM,73.6,72.3,96,29.95,10.0,SW,3.5,-,N/A,,Overcast,220,2013-09-01 19:35:00
3:55 PM,74.5,72.7,94,29.93,10.0,Calm,Calm,-,N/A,,Overcast,0,2013-09-01 19:55:00
4:15 PM,75.6,73.2,92,29.92,10.0,WNW,4.6,-,N/A,,Overcast,290,2013-09-01 20:15:00
4:35 PM,77.2,73.4,88,29.92,10.0,WNW,4.6,-,N/A,,Mostly Cloudy,290,2013-09-01 20:35:00
4:55 PM,77.2,72.9,86,29.92,10.0,West,4.6,-,N/A,,Overcast,280,2013-09-01 20:55:00
5:15 PM,77.4,73.0,86,29.92,10.0,WSW,3.5,-,N/A,,Mostly Cloudy,250,2013-09-01 21:15:00
5:35 PM,77.5,72.9,85,29.92,10.0,WNW,4.6,-,N/A,,Scattered Clouds,290,2013-09-01 21:35:00
5:55 PM,77.0,72.5,86,29.92,10.0,NW,3.5,-,N/A,,Scattered Clouds,320,2013-09-01 21:55:00
6:15 PM,76.3,72.9,89,29.92,10.0,Calm,Calm,-,N/A,,Mostly Cloudy,0,2013-09-01 22:15:00
6:35 PM,75.6,73.4,93,29.92,10.0,Calm,Calm,-,N/A,,Scattered Clouds,0,2013-09-01 22:35:00
6:55 PM,74.8,73.8,96,29.92,10.0,Calm,Calm,-,N/A,,Scattered Clouds,0,2013-09-01 22:55:00
7:15 PM,74.5,73.4,96,29.92,10.0,Calm,Calm,-,N/A,,Scattered Clouds,0,2013-09-01 23:15:00
7:35 PM,74.3,73.4,97,29.93,10.0,Calm,Calm,-,N/A,,Mostly Cloudy,0,2013-09-01 23:35:00
7:55 PM,74.1,73.0,96,29.93,10.0,Calm,Calm,-,N/A,,Overcast,0,2013-09-01 23:55:00
8:15 PM,73.4,72.9,98,29.93,10.0,Calm,Calm,-,N/A,,Scattered Clouds,0,2013-09-02 00:15:00
8:35 PM,72.5,72.5,100,29.93,7.0,Calm,Calm,-,N/A,,Scattered Clouds,0,2013-09-02 00:35:00
8:55 PM,71.2,71.2,100,29.93,5.0,Calm,Calm,-,N/A,,Scattered Clouds,0,2013-09-02 00:55:00
9:15 PM,70.5,70.5,100,29.94,3.0,Calm,Calm,-,N/A,,Clear,0,2013-09-02 01:15:00
9:35 PM,70.3,70.3,100,29.95,4.0,Calm,Calm,-,N/A,,Clear,0,2013-09-02 01:35:00
9:55 PM,69.4,69.4,100,29.95,5.0,Calm,Calm,-,N/A,,Clear,0,2013-09-02 01:55:00
10:15 PM,69.3,69.3,100,29.95,3.0,Calm,Calm,-,N/A,,Clear,0,2013-09-02 02:15:00
10:35 PM,68.5,68.5,100,29.95,2.0,Calm,Calm,-,N/A,,Clear,0,2013-09-02 02:35:00
10:55 PM,68.5,68.5,100,29.95,3.0,Calm,Calm,-,N/A,,Scattered Clouds,0,2013-09-02 02:55:00
11:15 PM,68.4,68.4,100,29.96,1.8,Calm,Calm,-,N/A,,Overcast,0,2013-09-02 03:15:00
11:35 PM,68.4,68.4,100,29.96,3.0,Calm,Calm,-,N/A,,Overcast,0,2013-09-02 03:35:00
11:55 PM,68.7,68.7,100,29.96,4.0,Calm,Calm,-,N/A,,Overcast,0,2013-09-02 03:55:00